Meteo Giornale » Osservazioni meteo Tailandia » Don Muang

ore: 04:00 - Osservazioni Meteo Don Muang
Lat. 13° 55' N Lon. 100° 36' E Alt. 4 metri s.l.m.

poco_nuvoloso Asia/Bangkok

27 °C

Poco Nuvoloso

Temp. 24 Ore

26 °C

33 °C

Nord

0 Km/h

Dew point 25 °C

Umidità 88 %

Visibilità  7 Km

Il sole sorge alle ore 06:44

Il sole tramonta alle ore 18:12

Data e Ora Cielo e Fenomeni T °C DP °C Um. % Pres. hPa Vis. km Vento km/h
Oggi h: 04:00 poco_nuvoloso Poco Nuvoloso 27 25 88 1012 7 N 0
Oggi h: 03:30 poco_nuvoloso Poco Nuvoloso 27 25 88 1012 7 N 0
Oggi h: 03:00 poco_nuvoloso Poco Nuvoloso 27 25 88 1012 8 S 7.4
Oggi h: 02:30 poco_nuvoloso Poco Nuvoloso 28 25 83 1012 8 S 7.4
Oggi h: 02:00 poco_nuvoloso Poco Nuvoloso 27 25 88 1013 8 S/SO 9.3
Oggi h: 01:30 poco_nuvoloso Poco Nuvoloso 27 24 83 1013 8 S/SO 7.4
Oggi h: 01:00 poco_nuvoloso Poco Nuvoloso 27 25 88 1013 8 N 3.7
Oggi h: 00:30 poco_nuvoloso Poco Nuvoloso 28 25 83 1013 8 N 3.7
Oggi h: 00:00 poco_nuvoloso Poco Nuvoloso 28 25 83 1013 8 N 3.7
Ieri h: 23:30 poco_nuvoloso Poco Nuvoloso 28 25 83 1013 8 N 5.5
Ieri h: 23:00 poco_nuvoloso Poco Nuvoloso 28 25 83 1013 8 S 7.4
Ieri h: 22:30 poco_nuvoloso Poco Nuvoloso 29 25 79 1013 8 S 7.4
Ieri h: 22:00 poco_nuvoloso Poco Nuvoloso 29 25 79 1013 8 S 11.1
Ieri h: 21:30 poco_nuvoloso Poco Nuvoloso 29 24 74 1012 8 S/SE 7.4
Ieri h: 20:30 poco_nuvoloso Poco Nuvoloso 30 23 66 1012 8 N 3.7
Ieri h: 20:00 poco_nuvoloso Poco Nuvoloso 30 22 62 1012 8 N 0
Ieri h: 19:30 poco_nuvoloso Poco Nuvoloso 31 22 58 1011 8 N 5.5
Ieri h: 19:00 poco_nuvoloso Poco Nuvoloso 32 22 55 1011 8 N 5.5
Ieri h: 18:30 poco_nuvoloso Poco Nuvoloso 31 22 58 1011 8 N 5.5
Ieri h: 18:00 poco_nuvoloso Poco Nuvoloso 32 22 55 1011 8 N 5.5
Ieri h: 17:30 poco_nuvoloso Poco Nuvoloso 33 22 52 1010 8 N 5.5
Ieri h: 17:00 poco_nuvoloso Poco Nuvoloso 33 22 52 1010 8 E/SE 11.1
Ieri h: 16:30 poco_nuvoloso Poco Nuvoloso 33 22 52 1010 8 E/SE 9.3
Ieri h: 16:00 poco_nuvoloso Poco Nuvoloso 33 22 52 1010 8 E/SE 9.3
Ieri h: 15:30 poco_nuvoloso Poco Nuvoloso 33 22 52 1010 8 E/SE 11.1
Ieri h: 15:00 poco_nuvoloso Poco Nuvoloso 33 23 55 1010 8 E/SE 11.1
Ieri h: 14:30 poco_nuvoloso Poco Nuvoloso 33 22 52 1011 8 E 14.8
Ieri h: 14:00 poco_nuvoloso Poco Nuvoloso 33 22 52 1011 8 N 5.5
Ieri h: 13:30 poco_nuvoloso Poco Nuvoloso 32 22 55 1012 8 E/SE 9.3
Ieri h: 12:30 poco_nuvoloso Poco Nuvoloso 31 24 66 1013 8 N 5.5
Ieri h: 12:00 poco_nuvoloso Poco Nuvoloso 31 24 66 1014 8 E/SE 9.3
Ieri h: 11:30 poco_nuvoloso Poco Nuvoloso 31 24 66 1014 8 N 3.7
Ieri h: 11:00 sereno Sereno 30 25 74 1014 6 N 3.7
Ieri h: 10:30 foschia Foschia 29 25 79 1015 5 N 3.7
Ieri h: 10:00 foschia Foschia 29 26 83 1015 5 N 5.5
Ieri h: 09:30 foschia Foschia 28 25 83 1015 4 N 5.5
Ieri h: 09:00 foschia Foschia 27 26 94 1014 4 N 5.5
Ieri h: 08:30 foschia Foschia 27 25 88 1014 3 E 7.4
Ieri h: 08:00 foschia Foschia 26 25 94 1013 3 E 7.4
Ieri h: 07:30 foschia Foschia 26 25 94 1013 3 E 7.4
Ieri h: 07:00 foschia Foschia 26 25 94 1013 3 E/SE 7.4
Ieri h: 06:30 poco_nuvoloso Poco Nuvoloso 26 25 94 1012 8 E/SE 9.3
Ieri h: 06:00 poco_nuvoloso Poco Nuvoloso 27 25 88 1012 8 N 3.7
Ieri h: 05:00 poco_nuvoloso Poco Nuvoloso 27 25 88 1012 8 S/SO 7.4
Ieri h: 04:30 poco_nuvoloso Poco Nuvoloso 27 25 88 1011 7 S/SO 7.4
Ieri h: 04:00 poco_nuvoloso Poco Nuvoloso 27 25 88 1011 7 S/SO 9.3